Wind_Speed
24 25 26 26 24 14 13 14 13 12 11 11 11 10 11 9 9 8 8 8 7 6 5 4 4 3 2 2 2 2 3 4 5 6 6 6 6 7 7 6 7 8 8 9 9 9 9 9 9
25 24 28 26 15 12 13 13 13 14 13 12 12 11 11 10 10 9 9 9 8 7 6 5 4 3 2 2 1 2 3 3 4 5 5 5 6 6 7 6 6 7 8 9 9 9 9 9 8
25 26 28 17 11 13 13 14 15 14 14 14 13 12 12 12 11 10 10 9 8 7 6 5 4 3 2 2 1 2 2 3 4 5 5 5 5 5 6 5 6 7 7 8 8 8 9 8 8
26 29 22 12 12 14 14 15 15 15 14 14 14 13 13 13 12 12 11 10 9 8 7 6 5 3 2 2 1 1 2 3 3 4 4 5 4 4 5 5 5 6 6 7 8 9 9 8 8
25 24 15 12 13 14 13 15 15 15 14 14 14 14 14 14 13 13 12 11 10 9 8 7 5 4 2 2 1 1 2 2 2 3 4 4 4 4 4 5 6 7 7 8 8 8 8 8 8
22 18 13 11 12 13 13 14 15 16 16 16 16 15 15 14 14 14 13 12 11 10 9 7 6 4 2 2 1 0 1 2 2 2 3 4 4 4 5 5 7 8 8 7 7 7 7 7 7
17 12 9 8 11 13 12 13 14 17 17 17 17 17 16 16 15 14 14 13 12 11 9 8 6 5 3 1 1 1 1 1 2 2 2 3 4 5 6 6 7 8 7 7 7 7 7 7 6
12 10 10 9 9 11 11 12 13 16 17 18 18 18 17 17 16 16 15 14 13 12 10 8 6 5 4 2 2 1 1 2 2 2 2 3 4 5 5 6 6 7 7 7 7 7 7 6 6
8 10 9 8 8 9 10 12 13 15 16 17 17 17 17 17 17 17 16 16 15 13 12 10 7 5 4 3 2 2 1 2 2 2 2 3 4 5 5 5 5 6 6 6 6 6 6 6 5
8 10 8 7 7 8 9 11 14 15 18 18 17 17 17 18 18 18 17 16 15 14 13 12 10 7 5 4 3 2 1 1 1 2 2 2 4 5 4 4 5 5 6 5 5 5 5 5 5
6 7 6 5 6 7 9 11 13 15 17 18 17 17 17 18 18 18 18 17 16 15 14 13 12 10 7 6 4 3 1 1 1 2 2 2 3 4 4 4 4 5 5 5 5 5 4 4 4
5 4 3 3 4 6 8 9 10 13 15 17 17 17 18 17 18 18 19 18 17 16 15 13 13 12 9 8 6 4 3 2 1 2 2 3 3 4 4 4 4 4 4 5 4 4 4 3 3
2 2 2 3 5 5 6 8 11 14 15 16 17 17 17 18 18 19 19 18 17 17 16 15 13 12 11 9 8 6 4 3 2 1 1 2 2 3 4 4 4 4 4 4 3 3 3 3 3
3 2 2 3 4 4 4 6 9 12 15 16 16 17 17 17 18 19 19 18 17 16 16 15 14 12 11 9 8 7 5 4 3 1 1 1 2 3 3 3 4 4 4 3 3 3 3 2 2
4 2 1 4 5 7 6 6 9 11 13 15 16 17 17 17 18 18 18 18 17 17 16 15 14 13 11 10 8 7 6 5 4 3 1 2 3 3 2 2 3 3 3 3 3 2 3 2 2
2 2 2 3 7 9 8 8 9 12 12 13 15 16 16 16 17 18 18 17 17 17 17 16 15 13 11 10 9 8 7 6 5 4 2 2 3 3 3 2 3 3 3 3 3 3 2 3 3
1 5 4 5 8 8 9 8 8 10 11 12 14 15 15 15 16 17 17 17 17 18 17 16 15 14 12 10 9 8 7 7 6 5 3 1 2 3 3 3 3 3 3 3 3 3 3 3 4
5 4 4 5 8 6 7 6 9 10 11 12 12 14 14 14 15 16 16 17 17 17 17 16 16 14 13 11 9 8 8 7 6 5 4 2 2 3 4 4 4 4 4 4 4 4 5 5 4
8 7 7 7 9 7 7 5 7 10 11 11 12 12 12 13 14 15 16 16 17 17 16 16 15 15 14 12 10 9 8 8 7 5 4 3 3 3 3 4 4 4 4 5 5 5 5 5 5
10 9 7 7 10 8 7 7 7 8 10 11 11 11 12 12 13 14 15 16 16 16 16 15 15 15 14 13 11 9 8 7 6 5 4 3 3 3 3 4 5 5 6 5 6 6 6 6 6
12 10 8 9 10 9 8 9 11 8 9 9 11 12 12 12 13 14 15 15 15 15 15 15 16 15 15 13 12 10 8 7 5 5 4 4 3 3 3 4 5 6 6 6 6 7 7 7 8
12 11 11 11 10 10 9 12 14 12 11 10 10 10 11 12 13 14 14 15 15 15 15 15 15 15 14 13 12 10 8 7 5 5 4 4 4 4 4 4 6 7 7 6 7 7 8 9 9
13 13 13 12 12 11 9 11 14 14 11 10 11 11 11 11 12 13 14 15 15 15 15 15 15 15 14 13 11 9 9 8 6 5 5 5 5 5 6 6 7 8 8 8 7 7 8 9 10
16 15 13 12 11 11 9 11 13 14 12 12 12 12 12 12 12 13 14 15 15 15 16 16 15 15 14 13 11 9 9 8 6 6 7 6 6 6 7 7 7 7 8 8 8 9 10 11 11
17 15 13 11 12 12 11 11 14 14 12 13 13 13 12 11 12 13 14 14 15 16 16 15 15 15 14 13 12 10 9 9 8 8 8 8 8 7 7 7 7 8 8 8 9 10 10 11 11
18 17 14 12 12 13 11 11 13 15 16 15 14 13 12 11 12 12 14 14 14 15 16 15 15 15 15 13 12 11 10 10 10 9 9 9 8 8 8 8 9 9 9 9 10 11 11 12 12
20 19 16 16 16 16 14 12 13 18 16 13 13 12 11 12 12 12 13 14 14 15 16 16 15 15 14 14 13 12 11 11 10 9 9 9 9 8 8 9 10 10 10 10 11 12 12 12 13
20 19 18 19 18 17 16 13 16 18 14 13 13 13 12 12 13 13 14 14 15 17 17 16 15 15 15 14 13 12 12 12 11 10 10 10 10 9 9 10 11 11 11 12 12 13 14 14 15
21 22 22 21 19 17 17 15 15 18 17 16 14 14 13 13 14 14 14 16 16 16 16 15 15 16 15 14 14 13 13 13 12 12 11 11 10 11 11 12 12 13 13 13 13 14 15 15 15
22 22 22 23 22 21 19 19 15 14 16 16 16 14 14 14 14 15 15 17 16 16 15 15 16 16 16 15 14 14 13 14 13 12 13 13 13 13 13 13 13 13 14 14 15 15 15 16 17
Wind_Direction
71 70 65 59 55 51 50 52 49 52 55 56 55 53 55 50 45 43 46 52 55 53 50 47 51 56 58 65 88 111 120 127 127 124 119 118 119 121 121 117 118 119 119 117 115 114 115 113 110
74 69 64 59 49 40 49 51 51 52 52 52 51 51 52 50 49 48 48 54 57 53 49 45 47 53 54 60 86 106 114 129 134 130 125 125 123 117 117 118 118 120 119 115 112 114 112 108 106
75 67 64 55 35 40 48 49 49 49 49 49 48 47 48 47 47 48 48 51 51 50 46 41 41 46 48 47 81 113 118 127 135 135 131 127 125 123 120 119 116 114 116 114 112 112 113 107 104
71 66 63 47 38 41 44 46 46 47 46 44 46 45 47 47 46 46 45 44 46 46 43 41 41 43 46 44 67 115 125 126 133 139 135 127 121 123 122 119 118 113 113 114 111 111 114 109 104
68 70 65 37 35 40 40 42 43 42 45 43 43 43 45 45 44 43 43 43 45 44 42 38 38 42 44 41 48 111 134 132 133 136 136 130 125 125 122 123 121 118 115 115 115 116 116 112 112
68 64 60 41 32 36 36 37 41 40 42 41 41 41 42 42 41 39 39 38 41 41 40 36 35 36 42 52 43 124 164 154 145 140 131 129 130 125 122 124 127 123 121 119 120 122 120 117 116
67 70 68 43 31 32 38 35 36 38 39 39 39 37 39 41 39 38 37 36 37 36 36 34 34 32 28 34 39 63 150 165 145 140 138 139 141 132 125 126 128 125 123 121 120 121 121 120 119
76 65 57 42 27 29 33 35 38 39 39 38 35 36 37 39 40 39 36 35 35 34 31 27 28 27 23 31 35 58 111 151 149 148 151 143 143 131 130 128 128 128 128 124 120 120 119 119 116
77 82 65 39 22 30 30 30 36 34 34 38 36 34 37 39 39 39 37 35 34 33 32 26 23 18 20 24 28 35 100 148 165 161 158 152 152 143 140 137 135 134 133 130 124 122 121 121 116
61 73 66 40 33 30 34 29 29 26 27 32 36 35 36 38 38 38 37 35 33 31 32 30 27 21 23 22 23 26 87 135 170 164 152 149 150 146 146 143 140 139 138 135 130 129 127 121 119
63 68 64 49 39 39 35 32 27 24 23 27 32 35 36 36 37 37 36 33 32 29 28 27 23 23 22 18 18 15 27 35 145 152 139 142 151 149 147 148 147 147 144 142 138 132 130 130 127
65 59 67 52 32 43 49 37 26 27 27 28 31 34 32 33 35 34 33 32 30 28 25 25 23 23 22 21 17 15 13 9 36 132 139 135 148 162 158 159 156 155 157 157 149 142 142 139 133
71 62 55 36 30 25 42 36 25 22 24 26 28 30 31 33 32 31 29 28 26 25 24 24 22 22 21 18 18 24 35 22 41 103 151 148 156 170 172 176 171 167 167 170 168 160 163 159 147
165 117 44 16 6 352 24 47 25 17 19 22 24 26 29 29 28 27 26 28 26 24 21 21 20 19 17 17 16 17 20 11 17 14 243 193 178 174 175 186 188 176 182 186 181 179 180 181 171
130 130 90 347 333 320 331 29 21 14 15 17 22 24 24 24 24 22 22 24 24 23 19 19 19 19 16 15 15 12 8 7 4 355 290 224 202 194 180 188 194 187 191 197 200 197 194 195 197
90 290 289 301 301 312 339 2 14 11 9 12 17 20 21 21 21 20 20 21 19 19 18 18 20 20 17 15 13 12 11 3 357 356 321 229 218 215 215 214 206 204 210 217 219 224 225 224 227
217 262 271 283 296 316 334 345 351 358 356 3 9 11 14 16 18 19 18 17 16 14 13 15 15 15 12 10 10 7 2 359 357 355 357 267 236 237 240 233 230 227 228 239 239 235 242 244 248
206 250 254 269 288 303 308 322 328 335 344 354 1 4 8 12 15 14 15 15 12 10 9 9 9 8 8 4 1 1 360 355 353 352 345 326 273 248 250 241 237 239 243 251 252 245 248 254 264
219 210 220 242 262 273 282 291 307 320 334 345 350 353 3 7 9 10 11 11 9 7 6 4 4 2 3 2 357 353 352 356 353 351 345 333 319 291 261 248 242 247 255 257 256 252 250 256 265
221 220 222 247 269 268 274 271 275 300 319 327 335 345 356 1 3 6 6 5 4 4 3 1 0 357 355 354 352 345 341 347 356 357 348 333 316 305 282 263 266 267 264 260 257 254 252 257 268
219 223 232 244 257 270 282 281 281 291 303 312 327 339 347 354 356 358 0 -0 359 1 0 358 356 354 351 349 346 343 344 341 347 353 354 342 324 309 290 266 272 276 279 267 262 258 257 265 275
223 230 239 244 250 266 271 282 284 291 296 307 317 329 341 346 350 351 353 355 355 357 357 355 354 352 349 347 346 339 336 337 338 334 337 331 323 310 295 281 276 274 277 271 264 261 266 271 275
224 231 239 243 250 256 257 278 287 294 289 301 310 322 330 336 343 345 347 350 351 352 352 352 351 351 350 348 345 337 331 331 334 335 328 318 305 300 297 294 287 280 280 274 271 272 275 277 279
225 233 240 243 252 260 264 273 281 277 285 300 304 312 318 325 333 338 342 344 346 346 346 346 346 346 345 344 341 337 331 327 328 331 330 324 309 299 294 294 292 289 289 279 275 278 279 280 282
227 230 238 250 262 265 259 263 270 274 283 283 290 300 308 314 322 330 335 339 341 343 342 341 341 341 341 343 341 336 332 330 330 327 327 326 319 310 303 298 296 295 293 284 279 282 285 284 286
230 226 227 240 252 257 246 246 262 273 277 280 285 291 301 308 316 327 333 336 337 339 342 342 340 340 341 342 338 335 332 328 327 323 323 321 317 312 306 304 298 295 295 292 287 284 285 287 287
228 224 226 244 255 268 266 248 258 271 277 282 289 291 296 303 313 323 329 333 337 338 339 340 341 341 339 338 335 332 330 328 326 322 316 312 310 305 302 302 297 295 293 293 291 289 286 287 287
226 226 227 235 248 257 262 255 257 265 274 283 289 288 292 298 307 316 323 328 332 335 334 335 338 338 337 334 330 328 327 324 322 321 316 310 306 304 301 303 301 298 295 294 292 291 290 288 289
230 225 225 231 235 248 262 258 255 266 276 281 281 285 285 293 304 310 316 322 327 330 330 331 334 335 334 332 331 329 327 323 318 318 317 312 307 304 300 302 300 297 297 297 295 292 289 289 291
232 232 228 231 232 235 250 260 259 268 269 272 279 282 287 290 298 306 313 318 322 327 328 329 333 332 332 331 329 328 326 326 322 319 317 315 312 308 304 299 301 299 299 298 295 293 292 290 291
Height
5911 5910 5908 5906 5907 5910 5907 5906 5904 5902 5901 5899 5897 5896 5894 5893 5893 5894 5890 5888 5888 5887 5887 5887 5886 5886 5886 5886 5886 5886 5887 5887 5887 5887 5887 5887 5888 5888 5888 5889 5889 5889 5889 5890 5890 5891 5892 5893 5893
5914 5913 5910 5911 5915 5912 5910 5909 5907 5905 5903 5901 5899 5898 5896 5895 5894 5893 5891 5890 5889 5888 5888 5888 5887 5887 5887 5887 5887 5887 5887 5888 5888 5888 5889 5889 5889 5889 5889 5890 5890 5890 5891 5891 5892 5893 5893 5894 5894
5916 5914 5913 5918 5918 5915 5914 5911 5909 5907 5905 5903 5902 5900 5898 5897 5895 5894 5893 5892 5890 5890 5889 5889 5888 5888 5888 5888 5888 5888 5888 5889 5889 5889 5890 5890 5890 5890 5891 5891 5891 5892 5892 5893 5893 5894 5895 5895 5896
5917 5915 5921 5924 5921 5918 5916 5914 5912 5910 5908 5906 5904 5902 5900 5898 5897 5895 5894 5893 5892 5891 5890 5890 5889 5889 5889 5889 5889 5889 5889 5890 5890 5890 5890 5891 5891 5891 5892 5892 5892 5893 5893 5894 5895 5895 5896 5897 5897
5919 5921 5926 5926 5923 5922 5919 5917 5915 5912 5910 5908 5906 5904 5902 5900 5899 5897 5896 5895 5894 5892 5891 5891 5890 5890 5890 5890 5890 5890 5890 5891 5891 5891 5891 5892 5892 5892 5893 5893 5893 5894 5895 5895 5896 5897 5897 5898 5899
5924 5927 5930 5929 5927 5925 5922 5920 5918 5915 5912 5910 5908 5906 5904 5902 5900 5899 5897 5896 5895 5894 5893 5892 5891 5891 5891 5891 5891 5891 5891 5891 5892 5892 5892 5892 5893 5893 5894 5894 5895 5895 5896 5896 5897 5898 5898 5899 5900
5929 5931 5932 5931 5929 5927 5926 5923 5920 5918 5915 5913 5910 5908 5906 5904 5902 5900 5899 5898 5896 5895 5894 5893 5892 5892 5892 5892 5892 5892 5892 5892 5892 5893 5893 5893 5894 5894 5895 5895 5896 5896 5897 5898 5898 5899 5899 5900 5901
5933 5934 5934 5933 5932 5930 5928 5925 5922 5920 5918 5915 5913 5911 5908 5906 5904 5902 5901 5899 5898 5897 5896 5895 5894 5893 5893 5893 5893 5893 5893 5893 5893 5893 5894 5894 5894 5895 5895 5896 5897 5897 5898 5899 5899 5900 5900 5901 5902
5935 5937 5938 5936 5934 5932 5930 5927 5925 5922 5919 5917 5915 5913 5911 5908 5906 5905 5903 5901 5900 5898 5897 5896 5895 5895 5894 5894 5893 5893 5893 5893 5893 5894 5894 5895 5895 5896 5896 5897 5898 5898 5899 5900 5900 5901 5901 5902 5903
5938 5939 5940 5939 5937 5935 5932 5929 5926 5924 5921 5918 5916 5914 5912 5911 5909 5907 5905 5903 5901 5900 5899 5898 5896 5895 5895 5895 5894 5894 5894 5894 5894 5894 5895 5895 5896 5896 5897 5898 5898 5899 5900 5900 5901 5902 5902 5903 5903
5941 5942 5942 5941 5938 5936 5934 5932 5929 5926 5924 5921 5919 5917 5914 5913 5911 5909 5907 5905 5903 5902 5900 5899 5898 5897 5896 5896 5895 5895 5895 5895 5895 5895 5895 5896 5896 5897 5898 5899 5899 5900 5901 5901 5902 5903 5903 5904 5904
5943 5943 5943 5942 5939 5938 5936 5934 5931 5929 5927 5924 5921 5919 5917 5915 5913 5911 5909 5907 5906 5904 5903 5901 5899 5899 5898 5897 5896 5896 5895 5895 5895 5896 5896 5896 5897 5897 5898 5899 5899 5901 5901 5902 5903 5903 5904 5905 5905
5945 5945 5943 5942 5941 5940 5938 5936 5933 5931 5929 5926 5924 5922 5919 5917 5915 5913 5911 5910 5908 5906 5905 5903 5901 5900 5899 5898 5897 5897 5897 5896 5896 5896 5896 5897 5898 5898 5899 5899 5900 5901 5902 5902 5903 5904 5905 5905 5905
5944 5945 5944 5943 5942 5939 5936 5935 5935 5933 5931 5928 5926 5923 5921 5919 5917 5915 5914 5912 5910 5908 5906 5904 5903 5901 5900 5899 5898 5898 5897 5897 5897 5897 5897 5897 5898 5898 5899 5900 5901 5901 5902 5903 5903 5904 5905 5905 5906
5943 5944 5945 5945 5943 5941 5939 5935 5936 5934 5932 5930 5928 5925 5923 5921 5919 5917 5915 5913 5911 5910 5908 5906 5904 5902 5901 5900 5899 5899 5898 5897 5897 5897 5897 5898 5898 5898 5899 5900 5901 5901 5902 5903 5903 5904 5905 5905 5906
5944 5945 5945 5946 5944 5942 5942 5938 5937 5934 5934 5932 5929 5927 5925 5923 5921 5919 5917 5915 5913 5911 5909 5907 5905 5904 5902 5901 5900 5900 5899 5898 5898 5897 5897 5897 5898 5899 5899 5900 5901 5901 5902 5903 5903 5904 5904 5905 5905
5945 5946 5946 5947 5944 5944 5942 5939 5937 5937 5936 5933 5931 5929 5927 5925 5922 5920 5919 5917 5914 5912 5910 5908 5907 5905 5904 5902 5901 5900 5899 5899 5898 5897 5897 5897 5898 5898 5899 5900 5900 5901 5902 5902 5903 5903 5904 5904 5904
5945 5946 5948 5948 5946 5945 5943 5941 5939 5938 5937 5934 5932 5930 5928 5926 5924 5922 5920 5918 5916 5914 5912 5909 5908 5906 5904 5903 5902 5901 5900 5899 5898 5898 5897 5897 5898 5898 5899 5900 5900 5901 5901 5902 5902 5903 5903 5903 5904
5942 5945 5947 5948 5946 5945 5943 5942 5942 5939 5937 5935 5933 5931 5929 5927 5925 5923 5921 5919 5917 5915 5913 5911 5909 5907 5905 5903 5902 5901 5900 5899 5899 5898 5898 5898 5898 5898 5899 5900 5900 5900 5900 5901 5901 5902 5902 5902 5903
5940 5943 5945 5946 5945 5944 5943 5942 5941 5940 5938 5936 5934 5931 5929 5928 5925 5924 5922 5920 5918 5916 5914 5912 5909 5907 5905 5903 5902 5901 5900 5899 5899 5898 5898 5898 5898 5898 5898 5899 5899 5899 5899 5899 5900 5900 5901 5901 5901
5939 5942 5943 5944 5943 5942 5942 5941 5939 5937 5936 5934 5933 5931 5929 5928 5926 5924 5922 5920 5918 5916 5914 5912 5910 5908 5905 5904 5902 5900 5899 5899 5899 5898 5898 5897 5897 5898 5898 5898 5899 5898 5898 5898 5898 5899 5899 5900 5900
5937 5939 5940 5941 5941 5941 5942 5941 5938 5936 5934 5932 5930 5930 5929 5928 5926 5924 5922 5920 5918 5916 5914 5912 5910 5908 5905 5904 5902 5900 5899 5899 5898 5898 5897 5897 5897 5897 5897 5897 5898 5897 5897 5897 5897 5897 5898 5898 5898
5934 5936 5937 5938 5939 5938 5939 5939 5937 5934 5931 5931 5929 5929 5929 5928 5926 5924 5922 5920 5918 5916 5914 5912 5910 5908 5905 5903 5901 5900 5899 5898 5898 5897 5897 5896 5896 5896 5896 5896 5896 5896 5896 5895 5895 5895 5896 5896 5896
5930 5932 5933 5934 5936 5937 5938 5938 5936 5932 5930 5930 5929 5929 5928 5927 5926 5924 5921 5919 5918 5915 5913 5911 5909 5907 5905 5903 5901 5900 5899 5898 5897 5897 5896 5895 5895 5895 5895 5895 5895 5894 5894 5894 5894 5894 5894 5894 5894
5927 5930 5932 5933 5934 5934 5936 5936 5935 5931 5930 5931 5929 5928 5927 5926 5924 5923 5921 5919 5917 5915 5913 5910 5908 5906 5904 5903 5901 5899 5898 5897 5897 5896 5895 5894 5894 5894 5893 5893 5893 5893 5892 5892 5892 5892 5891 5891 5891
5923 5927 5929 5932 5933 5932 5931 5933 5932 5929 5929 5928 5927 5926 5925 5924 5923 5921 5919 5918 5916 5914 5911 5910 5908 5905 5903 5902 5900 5899 5898 5897 5896 5895 5894 5893 5892 5892 5892 5892 5891 5891 5890 5889 5889 5889 5889 5889 5888
5920 5922 5926 5929 5928 5928 5928 5929 5929 5927 5925 5925 5924 5924 5923 5922 5921 5919 5918 5916 5914 5912 5910 5908 5906 5904 5903 5901 5899 5898 5897 5896 5895 5894 5893 5892 5891 5890 5890 5890 5889 5888 5888 5887 5887 5886 5886 5886 5885
5916 5919 5923 5924 5926 5926 5926 5925 5925 5922 5921 5922 5922 5922 5921 5920 5918 5917 5916 5914 5913 5911 5908 5906 5905 5903 5901 5899 5898 5897 5896 5894 5893 5892 5891 5890 5889 5889 5888 5887 5887 5886 5885 5884 5884 5883 5883 5882 5882
5911 5914 5917 5920 5922 5923 5924 5924 5919 5920 5920 5920 5919 5919 5918 5918 5916 5914 5913 5912 5911 5908 5906 5905 5903 5901 5899 5898 5896 5895 5894 5893 5891 5890 5889 5888 5888 5887 5886 5885 5884 5883 5882 5881 5880 5880 5879 5879 5878
5906 5909 5912 5915 5916 5918 5919 5920 5915 5918 5917 5916 5916 5916 5916 5915 5914 5912 5911 5910 5909 5906 5904 5903 5901 5899 5897 5896 5894 5893 5892 5891 5890 5889 5888 5886 5885 5884 5883 5882 5881 5880 5879 5878 5877 5876 5876 5875 5874